owner,sensor,date,latitude,longitude,air_temperature,qcFlag 
WAVCIS,ioos:station:WAVCIS:CSI03:1,2009-07-01T00:00:00Z,29.4412,-92.0613,31.58,11111222 
WAVCIS,ioos:station:WAVCIS:CSI03:1,2009-07-01T01:00:00Z,29.4412,-92.0613,30.6,11111222 
WAVCIS,ioos:station:WAVCIS:CSI03:1,2009-07-01T02:00:00Z,29.4412,-92.0613,30.78,11111222 
WAVCIS,ioos:station:WAVCIS:CSI03:1,2009-07-01T03:00:00Z,29.4412,-92.0613,30.54,11111222 
WAVCIS,ioos:station:WAVCIS:CSI03:1,2009-07-01T04:00:00Z,29.4412,-92.0613,30.7,11111222 
WAVCIS,ioos:station:WAVCIS:CSI03:1,2009-07-01T05:00:00Z,29.4412,-92.0613,29.92,11111222 
WAVCIS,ioos:station:WAVCIS:CSI03:1,2009-07-01T06:00:00Z,29.4412,-92.0613,29.85,11111222 
WAVCIS,ioos:station:WAVCIS:CSI03:1,2009-07-01T07:00:00Z,29.4412,-92.0613,29.43,11111222 
WAVCIS,ioos:station:WAVCIS:CSI03:1,2009-07-01T08:00:00Z,29.4412,-92.0613,29.11,11111222 
WAVCIS,ioos:station:WAVCIS:CSI03:1,2009-07-01T09:00:00Z,29.4412,-92.0613,29.05,11111222 
WAVCIS,ioos:station:WAVCIS:CSI03:1,2009-07-01T10:00:00Z,29.4412,-92.0613,28.96,11111222 
WAVCIS,ioos:station:WAVCIS:CSI03:1,2009-07-01T11:00:00Z,29.4412,-92.0613,29.05,11111222 
WAVCIS,ioos:station:WAVCIS:CSI03:1,2009-07-01T12:00:00Z,29.4412,-92.0613,29.06,11111222 
WAVCIS,ioos:station:WAVCIS:CSI03:1,2009-07-01T13:00:00Z,29.4412,-92.0613,29.04,11111222 
WAVCIS,ioos:station:WAVCIS:CSI03:1,2009-07-01T14:00:00Z,29.4412,-92.0613,29.23,11111222 
WAVCIS,ioos:station:WAVCIS:CSI03:1,2009-07-01T15:00:00Z,29.4412,-92.0613,29.44,11111222 
WAVCIS,ioos:station:WAVCIS:CSI03:1,2009-07-01T16:00:00Z,29.4412,-92.0613,30.1,11111222 
WAVCIS,ioos:station:WAVCIS:CSI03:1,2009-07-01T17:00:00Z,29.4412,-92.0613,30.71,11111222 
WAVCIS,ioos:station:WAVCIS:CSI03:1,2009-07-01T18:00:00Z,29.4412,-92.0613,31.1,11111222 
WAVCIS,ioos:station:WAVCIS:CSI03:1,2009-07-01T19:00:00Z,29.4412,-92.0613,30.68,11111222 
WAVCIS,ioos:station:WAVCIS:CSI03:1,2009-07-01T20:00:00Z,29.4412,-92.0613,31.82,11111222 
WAVCIS,ioos:station:WAVCIS:CSI03:1,2009-07-01T21:00:00Z,29.4412,-92.0613,32.16,11111222 
WAVCIS,ioos:station:WAVCIS:CSI03:1,2009-07-01T22:00:00Z,29.4412,-92.0613,32.05,11111222 
WAVCIS,ioos:station:WAVCIS:CSI03:1,2009-07-01T23:00:00Z,29.4412,-92.0613,32.06,11111222 
WAVCIS,ioos:station:WAVCIS:CSI03:1,2009-07-02T00:00:00Z,29.4412,-92.0613,32.11,11111222 
WAVCIS,ioos:station:WAVCIS:CSI03:1,2009-07-02T01:00:00Z,29.4412,-92.0613,31.39,11111222 
WAVCIS,ioos:station:WAVCIS:CSI03:1,2009-07-02T02:00:00Z,29.4412,-92.0613,30.73,11111222 
WAVCIS,ioos:station:WAVCIS:CSI03:1,2009-07-02T03:00:00Z,29.4412,-92.0613,30.6,11111222 
WAVCIS,ioos:station:WAVCIS:CSI03:1,2009-07-02T04:00:00Z,29.4412,-92.0613,30.76,11111222 
WAVCIS,ioos:station:WAVCIS:CSI03:1,2009-07-02T05:00:00Z,29.4412,-92.0613,30.72,11111222 
WAVCIS,ioos:station:WAVCIS:CSI03:1,2009-07-02T06:00:00Z,29.4412,-92.0613,30.49,11111222 
WAVCIS,ioos:station:WAVCIS:CSI03:1,2009-07-02T07:00:00Z,29.4412,-92.0613,30.68,11111222 
WAVCIS,ioos:station:WAVCIS:CSI03:1,2009-07-02T08:00:00Z,29.4412,-92.0613,29.89,11111222 
WAVCIS,ioos:station:WAVCIS:CSI03:1,2009-07-02T09:00:00Z,29.4412,-92.0613,30.37,11111222 
WAVCIS,ioos:station:WAVCIS:CSI03:1,2009-07-02T10:00:00Z,29.4412,-92.0613,30.25,11111222 
WAVCIS,ioos:station:WAVCIS:CSI03:1,2009-07-02T11:00:00Z,29.4412,-92.0613,29.73,11111222 
WAVCIS,ioos:station:WAVCIS:CSI03:1,2009-07-02T12:00:00Z,29.4412,-92.0613,29.96,11111222 
WAVCIS,ioos:station:WAVCIS:CSI03:1,2009-07-02T13:00:00Z,29.4412,-92.0613,29.86,11111222 
WAVCIS,ioos:station:WAVCIS:CSI03:1,2009-07-02T14:00:00Z,29.4412,-92.0613,30.12,11111222 
WAVCIS,ioos:station:WAVCIS:CSI03:1,2009-07-02T15:00:00Z,29.4412,-92.0613,30.07,11111222 
WAVCIS,ioos:station:WAVCIS:CSI03:1,2009-07-02T16:00:00Z,29.4412,-92.0613,30.67,11111222 
WAVCIS,ioos:station:WAVCIS:CSI03:1,2009-07-02T17:00:00Z,29.4412,-92.0613,30.5,11111222 
WAVCIS,ioos:station:WAVCIS:CSI03:1,2009-07-02T18:00:00Z,29.4412,-92.0613,31.49,11111222 
WAVCIS,ioos:station:WAVCIS:CSI03:1,2009-07-02T19:00:00Z,29.4412,-92.0613,32.16,11111222 
WAVCIS,ioos:station:WAVCIS:CSI03:1,2009-07-02T20:00:00Z,29.4412,-92.0613,32.27,11111222 
WAVCIS,ioos:station:WAVCIS:CSI03:1,2009-07-02T21:00:00Z,29.4412,-92.0613,32.4,11111222 
WAVCIS,ioos:station:WAVCIS:CSI03:1,2009-07-02T22:00:00Z,29.4412,-92.0613,32.13,11111222 
WAVCIS,ioos:station:WAVCIS:CSI03:1,2009-07-02T23:00:00Z,29.4412,-92.0613,31.9,11111222 
WAVCIS,ioos:station:WAVCIS:CSI03:1,2009-07-03T00:00:00Z,29.4412,-92.0613,32.45,11111222 
WAVCIS,ioos:station:WAVCIS:CSI03:1,2009-07-03T01:00:00Z,29.4412,-92.0613,31.8,11111222 
WAVCIS,ioos:station:WAVCIS:CSI03:1,2009-07-03T02:00:00Z,29.4412,-92.0613,31.31,11111222 
WAVCIS,ioos:station:WAVCIS:CSI03:1,2009-07-03T03:00:00Z,29.4412,-92.0613,30.86,11111222 
WAVCIS,ioos:station:WAVCIS:CSI03:1,2009-07-03T04:00:00Z,29.4412,-92.0613,31.1,11111222 
WAVCIS,ioos:station:WAVCIS:CSI03:1,2009-07-03T05:00:00Z,29.4412,-92.0613,30.27,11111222 
WAVCIS,ioos:station:WAVCIS:CSI03:1,2009-07-03T06:00:00Z,29.4412,-92.0613,30.29,11111222 
WAVCIS,ioos:station:WAVCIS:CSI03:1,2009-07-03T07:00:00Z,29.4412,-92.0613,29.97,11111222 
WAVCIS,ioos:station:WAVCIS:CSI03:1,2009-07-03T08:00:00Z,29.4412,-92.0613,30.97,11111222 
WAVCIS,ioos:station:WAVCIS:CSI03:1,2009-07-03T09:00:00Z,29.4412,-92.0613,30.26,11111222 
WAVCIS,ioos:station:WAVCIS:CSI03:1,2009-07-03T10:00:00Z,29.4412,-92.0613,30.57,11111222 
WAVCIS,ioos:station:WAVCIS:CSI03:1,2009-07-03T11:00:00Z,29.4412,-92.0613,30.22,11111222 
WAVCIS,ioos:station:WAVCIS:CSI03:1,2009-07-03T12:00:00Z,29.4412,-92.0613,29.89,11111222 
WAVCIS,ioos:station:WAVCIS:CSI03:1,2009-07-03T13:00:00Z,29.4412,-92.0613,30.93,11111222 
WAVCIS,ioos:station:WAVCIS:CSI03:1,2009-07-03T14:00:00Z,29.4412,-92.0613,31.48,11111222 
WAVCIS,ioos:station:WAVCIS:CSI03:1,2009-07-03T15:00:00Z,29.4412,-92.0613,30.84,11111222 
WAVCIS,ioos:station:WAVCIS:CSI03:1,2009-07-03T16:00:00Z,29.4412,-92.0613,30.77,11111222 
WAVCIS,ioos:station:WAVCIS:CSI03:1,2009-07-03T17:00:00Z,29.4412,-92.0613,31.29,11111222 
WAVCIS,ioos:station:WAVCIS:CSI03:1,2009-07-03T18:00:00Z,29.4412,-92.0613,31.77,11111222 
WAVCIS,ioos:station:WAVCIS:CSI03:1,2009-07-03T19:00:00Z,29.4412,-92.0613,31.75,11111222 
WAVCIS,ioos:station:WAVCIS:CSI03:1,2009-07-03T20:00:00Z,29.4412,-92.0613,32.06,11111222 
WAVCIS,ioos:station:WAVCIS:CSI03:1,2009-07-03T21:00:00Z,29.4412,-92.0613,31.92,11111222 
WAVCIS,ioos:station:WAVCIS:CSI03:1,2009-07-03T22:00:00Z,29.4412,-92.0613,32.16,11111222 
WAVCIS,ioos:station:WAVCIS:CSI03:1,2009-07-03T23:00:00Z,29.4412,-92.0613,32.31,11111222 
WAVCIS,ioos:station:WAVCIS:CSI03:1,2009-07-04T00:00:00Z,29.4412,-92.0613,32.47,11111222 
WAVCIS,ioos:station:WAVCIS:CSI03:1,2009-07-04T01:00:00Z,29.4412,-92.0613,32.18,11111222 
WAVCIS,ioos:station:WAVCIS:CSI03:1,2009-07-04T02:00:00Z,29.4412,-92.0613,31.97,11111222 
WAVCIS,ioos:station:WAVCIS:CSI03:1,2009-07-04T03:00:00Z,29.4412,-92.0613,31.84,11111222 
WAVCIS,ioos:station:WAVCIS:CSI03:1,2009-07-04T04:00:00Z,29.4412,-92.0613,32.09,11111222 
WAVCIS,ioos:station:WAVCIS:CSI03:1,2009-07-04T05:00:00Z,29.4412,-92.0613,31.89,11111222 
WAVCIS,ioos:station:WAVCIS:CSI03:1,2009-07-04T06:00:00Z,29.4412,-92.0613,31.7,11111222 
WAVCIS,ioos:station:WAVCIS:CSI03:1,2009-07-04T07:00:00Z,29.4412,-92.0613,31.69,11111222 
WAVCIS,ioos:station:WAVCIS:CSI03:1,2009-07-04T08:00:00Z,29.4412,-92.0613,31.69,11111222 
WAVCIS,ioos:station:WAVCIS:CSI03:1,2009-07-04T09:00:00Z,29.4412,-92.0613,31.55,11111222 
WAVCIS,ioos:station:WAVCIS:CSI03:1,2009-07-04T10:00:00Z,29.4412,-92.0613,30.87,11111222 
WAVCIS,ioos:station:WAVCIS:CSI03:1,2009-07-04T11:00:00Z,29.4412,-92.0613,30.47,11111222 
WAVCIS,ioos:station:WAVCIS:CSI03:1,2009-07-04T12:00:00Z,29.4412,-92.0613,30.65,11111222 
WAVCIS,ioos:station:WAVCIS:CSI03:1,2009-07-04T13:00:00Z,29.4412,-92.0613,30.69,11111222 
WAVCIS,ioos:station:WAVCIS:CSI03:1,2009-07-04T14:00:00Z,29.4412,-92.0613,30.87,11111222 
WAVCIS,ioos:station:WAVCIS:CSI03:1,2009-07-04T15:00:00Z,29.4412,-92.0613,30.63,11111222 
WAVCIS,ioos:station:WAVCIS:CSI03:1,2009-07-04T16:00:00Z,29.4412,-92.0613,30.57,11111222 
WAVCIS,ioos:station:WAVCIS:CSI03:1,2009-07-04T17:00:00Z,29.4412,-92.0613,30.48,11111222 
WAVCIS,ioos:station:WAVCIS:CSI03:1,2009-07-04T18:00:00Z,29.4412,-92.0613,30.28,11111222 
WAVCIS,ioos:station:WAVCIS:CSI03:1,2009-07-04T19:00:00Z,29.4412,-92.0613,30.25,11111222 
WAVCIS,ioos:station:WAVCIS:CSI03:1,2009-07-04T20:00:00Z,29.4412,-92.0613,30.12,11111222 
WAVCIS,ioos:station:WAVCIS:CSI03:1,2009-07-04T21:00:00Z,29.4412,-92.0613,30.09,11111222 
WAVCIS,ioos:station:WAVCIS:CSI03:1,2009-07-04T22:00:00Z,29.4412,-92.0613,30.27,11111222 
WAVCIS,ioos:station:WAVCIS:CSI03:1,2009-07-04T23:00:00Z,29.4412,-92.0613,30.43,11111222 
WAVCIS,ioos:station:WAVCIS:CSI03:1,2009-07-05T00:00:00Z,29.4412,-92.0613,30.92,11111222 
WAVCIS,ioos:station:WAVCIS:CSI03:1,2009-07-05T01:00:00Z,29.4412,-92.0613,30.42,11111222 
WAVCIS,ioos:station:WAVCIS:CSI03:1,2009-07-05T02:00:00Z,29.4412,-92.0613,31.05,11111222 
WAVCIS,ioos:station:WAVCIS:CSI03:1,2009-07-05T03:00:00Z,29.4412,-92.0613,31.48,11111222 
WAVCIS,ioos:station:WAVCIS:CSI03:1,2009-07-05T04:00:00Z,29.4412,-92.0613,31.35,11111222 
WAVCIS,ioos:station:WAVCIS:CSI03:1,2009-07-05T05:00:00Z,29.4412,-92.0613,32.06,11111222 
WAVCIS,ioos:station:WAVCIS:CSI03:1,2009-07-05T06:00:00Z,29.4412,-92.0613,31.54,11111222 
WAVCIS,ioos:station:WAVCIS:CSI03:1,2009-07-05T07:00:00Z,29.4412,-92.0613,30.93,11111222 
WAVCIS,ioos:station:WAVCIS:CSI03:1,2009-07-05T08:00:00Z,29.4412,-92.0613,30.89,11111222 
WAVCIS,ioos:station:WAVCIS:CSI03:1,2009-07-05T09:00:00Z,29.4412,-92.0613,30.39,11111222 
WAVCIS,ioos:station:WAVCIS:CSI03:1,2009-07-05T10:00:00Z,29.4412,-92.0613,30.31,11111222 
WAVCIS,ioos:station:WAVCIS:CSI03:1,2009-07-05T11:00:00Z,29.4412,-92.0613,30.23,11111222 
WAVCIS,ioos:station:WAVCIS:CSI03:1,2009-07-05T12:00:00Z,29.4412,-92.0613,30.43,11111222 
WAVCIS,ioos:station:WAVCIS:CSI03:1,2009-07-05T13:00:00Z,29.4412,-92.0613,30.62,11111222 
WAVCIS,ioos:station:WAVCIS:CSI03:1,2009-07-05T14:00:00Z,29.4412,-92.0613,30.5,11111222 
WAVCIS,ioos:station:WAVCIS:CSI03:1,2009-07-05T15:00:00Z,29.4412,-92.0613,30.64,11111222 
WAVCIS,ioos:station:WAVCIS:CSI03:1,2009-07-05T16:00:00Z,29.4412,-92.0613,29.98,11111222 
WAVCIS,ioos:station:WAVCIS:CSI03:1,2009-07-05T17:00:00Z,29.4412,-92.0613,29.98,11111222 
WAVCIS,ioos:station:WAVCIS:CSI03:1,2009-07-05T18:00:00Z,29.4412,-92.0613,30.01,11111222 
WAVCIS,ioos:station:WAVCIS:CSI03:1,2009-07-05T19:00:00Z,29.4412,-92.0613,29.98,11111222 
WAVCIS,ioos:station:WAVCIS:CSI03:1,2009-07-05T20:00:00Z,29.4412,-92.0613,30.1,11111222 
WAVCIS,ioos:station:WAVCIS:CSI03:1,2009-07-05T21:00:00Z,29.4412,-92.0613,30.19,11111222 
WAVCIS,ioos:station:WAVCIS:CSI03:1,2009-07-05T22:00:00Z,29.4412,-92.0613,30.66,11111222 
WAVCIS,ioos:station:WAVCIS:CSI03:1,2009-07-05T23:00:00Z,29.4412,-92.0613,31.07,11111222 
WAVCIS,ioos:station:WAVCIS:CSI03:1,2009-07-06T00:00:00Z,29.4412,-92.0613,30.77,11111222 
WAVCIS,ioos:station:WAVCIS:CSI03:1,2009-07-06T01:00:00Z,29.4412,-92.0613,30.56,11111222 
WAVCIS,ioos:station:WAVCIS:CSI03:1,2009-07-06T02:00:00Z,29.4412,-92.0613,30.29,11111222 
WAVCIS,ioos:station:WAVCIS:CSI03:1,2009-07-06T03:00:00Z,29.4412,-92.0613,30.56,11111222 
WAVCIS,ioos:station:WAVCIS:CSI03:1,2009-07-06T04:00:00Z,29.4412,-92.0613,30.9,11111222 
WAVCIS,ioos:station:WAVCIS:CSI03:1,2009-07-06T05:00:00Z,29.4412,-92.0613,29.82,11111222 
WAVCIS,ioos:station:WAVCIS:CSI03:1,2009-07-06T06:00:00Z,29.4412,-92.0613,29.72,11111222 
WAVCIS,ioos:station:WAVCIS:CSI03:1,2009-07-06T07:00:00Z,29.4412,-92.0613,29.92,11111222 
WAVCIS,ioos:station:WAVCIS:CSI03:1,2009-07-06T08:00:00Z,29.4412,-92.0613,29.94,11111222 
WAVCIS,ioos:station:WAVCIS:CSI03:1,2009-07-06T09:00:00Z,29.4412,-92.0613,29.95,11111222 
WAVCIS,ioos:station:WAVCIS:CSI03:1,2009-07-06T10:00:00Z,29.4412,-92.0613,29.92,11111222 
WAVCIS,ioos:station:WAVCIS:CSI03:1,2009-07-06T11:00:00Z,29.4412,-92.0613,29.88,11111222 
WAVCIS,ioos:station:WAVCIS:CSI03:1,2009-07-06T12:00:00Z,29.4412,-92.0613,30.03,11111222 
WAVCIS,ioos:station:WAVCIS:CSI03:1,2009-07-06T13:00:00Z,29.4412,-92.0613,30.24,11111222 
WAVCIS,ioos:station:WAVCIS:CSI03:1,2009-07-06T14:00:00Z,29.4412,-92.0613,30.04,11111222 
WAVCIS,ioos:station:WAVCIS:CSI03:1,2009-07-06T15:00:00Z,29.4412,-92.0613,29.65,11111222 
WAVCIS,ioos:station:WAVCIS:CSI03:1,2009-07-06T16:00:00Z,29.4412,-92.0613,29.88,11111222 
WAVCIS,ioos:station:WAVCIS:CSI03:1,2009-07-06T17:00:00Z,29.4412,-92.0613,29.7,11111222 
WAVCIS,ioos:station:WAVCIS:CSI03:1,2009-07-06T18:00:00Z,29.4412,-92.0613,29.74,11111222 
WAVCIS,ioos:station:WAVCIS:CSI03:1,2009-07-06T19:00:00Z,29.4412,-92.0613,29.75,11111222 
WAVCIS,ioos:station:WAVCIS:CSI03:1,2009-07-06T20:00:00Z,29.4412,-92.0613,29.79,11111222 
WAVCIS,ioos:station:WAVCIS:CSI03:1,2009-07-06T21:00:00Z,29.4412,-92.0613,30.57,11111222 
WAVCIS,ioos:station:WAVCIS:CSI03:1,2009-07-06T22:00:00Z,29.4412,-92.0613,31.07,11111222 
WAVCIS,ioos:station:WAVCIS:CSI03:1,2009-07-06T23:00:00Z,29.4412,-92.0613,30.87,11111222 
WAVCIS,ioos:station:WAVCIS:CSI03:1,2009-07-07T00:00:00Z,29.4412,-92.0613,30.61,11111222 
WAVCIS,ioos:station:WAVCIS:CSI03:1,2009-07-07T01:00:00Z,29.4412,-92.0613,30.28,11111222 
WAVCIS,ioos:station:WAVCIS:CSI03:1,2009-07-07T02:00:00Z,29.4412,-92.0613,29.93,11111222 
WAVCIS,ioos:station:WAVCIS:CSI03:1,2009-07-07T03:00:00Z,29.4412,-92.0613,30.18,11111222 
WAVCIS,ioos:station:WAVCIS:CSI03:1,2009-07-07T04:00:00Z,29.4412,-92.0613,30.0,11111222 
WAVCIS,ioos:station:WAVCIS:CSI03:1,2009-07-07T05:00:00Z,29.4412,-92.0613,30.16,11111222 
WAVCIS,ioos:station:WAVCIS:CSI03:1,2009-07-07T06:00:00Z,29.4412,-92.0613,30.04,11111222 
WAVCIS,ioos:station:WAVCIS:CSI03:1,2009-07-07T07:00:00Z,29.4412,-92.0613,30.01,11111222 
WAVCIS,ioos:station:WAVCIS:CSI03:1,2009-07-07T08:00:00Z,29.4412,-92.0613,29.7,11111222 
WAVCIS,ioos:station:WAVCIS:CSI03:1,2009-07-07T09:00:00Z,29.4412,-92.0613,29.66,11111222 
WAVCIS,ioos:station:WAVCIS:CSI03:1,2009-07-07T10:00:00Z,29.4412,-92.0613,29.77,11111222 
WAVCIS,ioos:station:WAVCIS:CSI03:1,2009-07-07T11:00:00Z,29.4412,-92.0613,29.45,11111222 
WAVCIS,ioos:station:WAVCIS:CSI03:1,2009-07-07T12:00:00Z,29.4412,-92.0613,29.43,11111222 
WAVCIS,ioos:station:WAVCIS:CSI03:1,2009-07-07T13:00:00Z,29.4412,-92.0613,29.4,11111222 
WAVCIS,ioos:station:WAVCIS:CSI03:1,2009-07-07T14:00:00Z,29.4412,-92.0613,29.62,11111222 
WAVCIS,ioos:station:WAVCIS:CSI03:1,2009-07-07T15:00:00Z,29.4412,-92.0613,29.67,11111222 
WAVCIS,ioos:station:WAVCIS:CSI03:1,2009-07-07T16:00:00Z,29.4412,-92.0613,29.43,11111222 
WAVCIS,ioos:station:WAVCIS:CSI03:1,2009-07-07T17:00:00Z,29.4412,-92.0613,28.12,11111222 
WAVCIS,ioos:station:WAVCIS:CSI03:1,2009-07-07T18:00:00Z,29.4412,-92.0613,25.95,11111222 
WAVCIS,ioos:station:WAVCIS:CSI03:1,2009-07-07T19:00:00Z,29.4412,-92.0613,24.37,11111222 
WAVCIS,ioos:station:WAVCIS:CSI03:1,2009-07-07T20:00:00Z,29.4412,-92.0613,25.22,11111222 
WAVCIS,ioos:station:WAVCIS:CSI03:1,2009-07-07T21:00:00Z,29.4412,-92.0613,26.97,11111222 
WAVCIS,ioos:station:WAVCIS:CSI03:1,2009-07-07T22:00:00Z,29.4412,-92.0613,27.68,11111222 
WAVCIS,ioos:station:WAVCIS:CSI03:1,2009-07-07T23:00:00Z,29.4412,-92.0613,28.32,11111222 
WAVCIS,ioos:station:WAVCIS:CSI03:1,2009-07-08T00:00:00Z,29.4412,-92.0613,28.93,11111222 
WAVCIS,ioos:station:WAVCIS:CSI03:1,2009-07-08T01:00:00Z,29.4412,-92.0613,28.78,11111222 
WAVCIS,ioos:station:WAVCIS:CSI03:1,2009-07-08T02:00:00Z,29.4412,-92.0613,28.72,11111222 
WAVCIS,ioos:station:WAVCIS:CSI03:1,2009-07-08T03:00:00Z,29.4412,-92.0613,29.12,11111222 
WAVCIS,ioos:station:WAVCIS:CSI03:1,2009-07-08T04:00:00Z,29.4412,-92.0613,28.95,11111222 
WAVCIS,ioos:station:WAVCIS:CSI03:1,2009-07-08T05:00:00Z,29.4412,-92.0613,28.88,11111222 
WAVCIS,ioos:station:WAVCIS:CSI03:1,2009-07-08T06:00:00Z,29.4412,-92.0613,29.1,11111222 
WAVCIS,ioos:station:WAVCIS:CSI03:1,2009-07-08T07:00:00Z,29.4412,-92.0613,29.02,11111222 
WAVCIS,ioos:station:WAVCIS:CSI03:1,2009-07-08T08:00:00Z,29.4412,-92.0613,28.68,11111222 
WAVCIS,ioos:station:WAVCIS:CSI03:1,2009-07-08T09:00:00Z,29.4412,-92.0613,28.74,11111222 
WAVCIS,ioos:station:WAVCIS:CSI03:1,2009-07-08T10:00:00Z,29.4412,-92.0613,28.29,11111222 
WAVCIS,ioos:station:WAVCIS:CSI03:1,2009-07-08T11:00:00Z,29.4412,-92.0613,28.47,11111222 
WAVCIS,ioos:station:WAVCIS:CSI03:1,2009-07-08T12:00:00Z,29.4412,-92.0613,27.22,11111222 
WAVCIS,ioos:station:WAVCIS:CSI03:1,2009-07-08T13:00:00Z,29.4412,-92.0613,27.04,11111222 
WAVCIS,ioos:station:WAVCIS:CSI03:1,2009-07-08T14:00:00Z,29.4412,-92.0613,25.01,11111222 
WAVCIS,ioos:station:WAVCIS:CSI03:1,2009-07-08T15:00:00Z,29.4412,-92.0613,24.61,11111222 
WAVCIS,ioos:station:WAVCIS:CSI03:1,2009-07-08T16:00:00Z,29.4412,-92.0613,27.41,11111222 
WAVCIS,ioos:station:WAVCIS:CSI03:1,2009-07-08T17:00:00Z,29.4412,-92.0613,28.27,11111222 
WAVCIS,ioos:station:WAVCIS:CSI03:1,2009-07-08T18:00:00Z,29.4412,-92.0613,28.58,11111222 
WAVCIS,ioos:station:WAVCIS:CSI03:1,2009-07-08T19:00:00Z,29.4412,-92.0613,29.51,11111222 
WAVCIS,ioos:station:WAVCIS:CSI03:1,2009-07-08T20:00:00Z,29.4412,-92.0613,30.56,11111222 
WAVCIS,ioos:station:WAVCIS:CSI03:1,2009-07-08T21:00:00Z,29.4412,-92.0613,30.96,11111222 
WAVCIS,ioos:station:WAVCIS:CSI03:1,2009-07-08T22:00:00Z,29.4412,-92.0613,30.08,11111222 
WAVCIS,ioos:station:WAVCIS:CSI03:1,2009-07-08T23:00:00Z,29.4412,-92.0613,29.78,11111222 
WAVCIS,ioos:station:WAVCIS:CSI03:1,2009-07-09T00:00:00Z,29.4412,-92.0613,29.63,11111222 
WAVCIS,ioos:station:WAVCIS:CSI03:1,2009-07-09T01:00:00Z,29.4412,-92.0613,29.55,11111222 
WAVCIS,ioos:station:WAVCIS:CSI03:1,2009-07-09T02:00:00Z,29.4412,-92.0613,29.79,11111222 
WAVCIS,ioos:station:WAVCIS:CSI03:1,2009-07-09T03:00:00Z,29.4412,-92.0613,30.12,11111222 
WAVCIS,ioos:station:WAVCIS:CSI03:1,2009-07-09T04:00:00Z,29.4412,-92.0613,30.06,11111222 
WAVCIS,ioos:station:WAVCIS:CSI03:1,2009-07-09T05:00:00Z,29.4412,-92.0613,29.85,11111222 
WAVCIS,ioos:station:WAVCIS:CSI03:1,2009-07-09T06:00:00Z,29.4412,-92.0613,29.79,11111222 
WAVCIS,ioos:station:WAVCIS:CSI03:1,2009-07-09T07:00:00Z,29.4412,-92.0613,29.58,11111222 
WAVCIS,ioos:station:WAVCIS:CSI03:1,2009-07-09T08:00:00Z,29.4412,-92.0613,29.91,11111222 
WAVCIS,ioos:station:WAVCIS:CSI03:1,2009-07-09T09:00:00Z,29.4412,-92.0613,29.81,11111222 
WAVCIS,ioos:station:WAVCIS:CSI03:1,2009-07-09T10:00:00Z,29.4412,-92.0613,29.26,11111222 
WAVCIS,ioos:station:WAVCIS:CSI03:1,2009-07-09T11:00:00Z,29.4412,-92.0613,29.12,11111222 
WAVCIS,ioos:station:WAVCIS:CSI03:1,2009-07-09T12:00:00Z,29.4412,-92.0613,29.07,11111222 
WAVCIS,ioos:station:WAVCIS:CSI03:1,2009-07-09T13:00:00Z,29.4412,-92.0613,29.36,11111222 
WAVCIS,ioos:station:WAVCIS:CSI03:1,2009-07-09T14:00:00Z,29.4412,-92.0613,29.0,11111222 
WAVCIS,ioos:station:WAVCIS:CSI03:1,2009-07-09T15:00:00Z,29.4412,-92.0613,29.37,11111222 
WAVCIS,ioos:station:WAVCIS:CSI03:1,2009-07-09T16:00:00Z,29.4412,-92.0613,30.07,11111222 
WAVCIS,ioos:station:WAVCIS:CSI03:1,2009-07-09T17:00:00Z,29.4412,-92.0613,29.65,11111222 
WAVCIS,ioos:station:WAVCIS:CSI03:1,2009-07-09T18:00:00Z,29.4412,-92.0613,29.63,11111222 
WAVCIS,ioos:station:WAVCIS:CSI03:1,2009-07-09T19:00:00Z,29.4412,-92.0613,29.87,11111222 
WAVCIS,ioos:station:WAVCIS:CSI03:1,2009-07-09T20:00:00Z,29.4412,-92.0613,29.74,11111222 
WAVCIS,ioos:station:WAVCIS:CSI03:1,2009-07-09T21:00:00Z,29.4412,-92.0613,28.89,11111222 
WAVCIS,ioos:station:WAVCIS:CSI03:1,2009-07-09T22:00:00Z,29.4412,-92.0613,29.12,11111222 
WAVCIS,ioos:station:WAVCIS:CSI03:1,2009-07-09T23:00:00Z,29.4412,-92.0613,28.4,11111222 
WAVCIS,ioos:station:WAVCIS:CSI03:1,2009-07-10T00:00:00Z,29.4412,-92.0613,29.55,11111222 
WAVCIS,ioos:station:WAVCIS:CSI03:1,2009-07-10T01:00:00Z,29.4412,-92.0613,29.45,11111222 
WAVCIS,ioos:station:WAVCIS:CSI03:1,2009-07-10T02:00:00Z,29.4412,-92.0613,29.12,11111222 
WAVCIS,ioos:station:WAVCIS:CSI03:1,2009-07-10T03:00:00Z,29.4412,-92.0613,29.15,11111222 
WAVCIS,ioos:station:WAVCIS:CSI03:1,2009-07-10T04:00:00Z,29.4412,-92.0613,29.44,11111222 
WAVCIS,ioos:station:WAVCIS:CSI03:1,2009-07-10T05:00:00Z,29.4412,-92.0613,30.15,11111222 
WAVCIS,ioos:station:WAVCIS:CSI03:1,2009-07-10T06:00:00Z,29.4412,-92.0613,29.63,11111222 
WAVCIS,ioos:station:WAVCIS:CSI03:1,2009-07-10T07:00:00Z,29.4412,-92.0613,29.78,11111222 
WAVCIS,ioos:station:WAVCIS:CSI03:1,2009-07-10T08:00:00Z,29.4412,-92.0613,29.84,11111222 
WAVCIS,ioos:station:WAVCIS:CSI03:1,2009-07-10T09:00:00Z,29.4412,-92.0613,30.09,11111222 
WAVCIS,ioos:station:WAVCIS:CSI03:1,2009-07-10T10:00:00Z,29.4412,-92.0613,29.35,11111222 
WAVCIS,ioos:station:WAVCIS:CSI03:1,2009-07-10T11:00:00Z,29.4412,-92.0613,31.19,11111222 
WAVCIS,ioos:station:WAVCIS:CSI03:1,2009-07-10T12:00:00Z,29.4412,-92.0613,31.12,11111222 
WAVCIS,ioos:station:WAVCIS:CSI03:1,2009-07-10T13:00:00Z,29.4412,-92.0613,29.48,11111222 
WAVCIS,ioos:station:WAVCIS:CSI03:1,2009-07-10T14:00:00Z,29.4412,-92.0613,29.76,11111222 
WAVCIS,ioos:station:WAVCIS:CSI03:1,2009-07-10T15:00:00Z,29.4412,-92.0613,29.18,11111222 
WAVCIS,ioos:station:WAVCIS:CSI03:1,2009-07-10T16:00:00Z,29.4412,-92.0613,28.88,11111222 
WAVCIS,ioos:station:WAVCIS:CSI03:1,2009-07-10T17:00:00Z,29.4412,-92.0613,29.71,11111222 
WAVCIS,ioos:station:WAVCIS:CSI03:1,2009-07-10T18:00:00Z,29.4412,-92.0613,29.48,11111222 
WAVCIS,ioos:station:WAVCIS:CSI03:1,2009-07-10T19:00:00Z,29.4412,-92.0613,29.84,11111222 
WAVCIS,ioos:station:WAVCIS:CSI03:1,2009-07-10T20:00:00Z,29.4412,-92.0613,30.47,11111222 
WAVCIS,ioos:station:WAVCIS:CSI03:1,2009-07-10T21:00:00Z,29.4412,-92.0613,31.17,11111222 
WAVCIS,ioos:station:WAVCIS:CSI03:1,2009-07-10T22:00:00Z,29.4412,-92.0613,31.67,11111222 
WAVCIS,ioos:station:WAVCIS:CSI03:1,2009-07-10T23:00:00Z,29.4412,-92.0613,31.56,11111222 
WAVCIS,ioos:station:WAVCIS:CSI03:1,2009-07-11T00:00:00Z,29.4412,-92.0613,31.44,11111222 
WAVCIS,ioos:station:WAVCIS:CSI03:1,2009-07-11T01:00:00Z,29.4412,-92.0613,30.42,11111222 
WAVCIS,ioos:station:WAVCIS:CSI03:1,2009-07-11T02:00:00Z,29.4412,-92.0613,30.43,11111222 
WAVCIS,ioos:station:WAVCIS:CSI03:1,2009-07-11T03:00:00Z,29.4412,-92.0613,30.41,11111222 
WAVCIS,ioos:station:WAVCIS:CSI03:1,2009-07-11T04:00:00Z,29.4412,-92.0613,30.41,11111222 
WAVCIS,ioos:station:WAVCIS:CSI03:1,2009-07-11T05:00:00Z,29.4412,-92.0613,30.05,11111222 
WAVCIS,ioos:station:WAVCIS:CSI03:1,2009-07-11T06:00:00Z,29.4412,-92.0613,30.11,11111222 
WAVCIS,ioos:station:WAVCIS:CSI03:1,2009-07-11T07:00:00Z,29.4412,-92.0613,30.04,11111222 
WAVCIS,ioos:station:WAVCIS:CSI03:1,2009-07-11T08:00:00Z,29.4412,-92.0613,29.91,11111222 
WAVCIS,ioos:station:WAVCIS:CSI03:1,2009-07-11T09:00:00Z,29.4412,-92.0613,29.98,11111222 
WAVCIS,ioos:station:WAVCIS:CSI03:1,2009-07-11T10:00:00Z,29.4412,-92.0613,29.95,11111222 
WAVCIS,ioos:station:WAVCIS:CSI03:1,2009-07-11T11:00:00Z,29.4412,-92.0613,29.3,11111222 
WAVCIS,ioos:station:WAVCIS:CSI03:1,2009-07-11T12:00:00Z,29.4412,-92.0613,29.53,11111222 
WAVCIS,ioos:station:WAVCIS:CSI03:1,2009-07-11T13:00:00Z,29.4412,-92.0613,30.49,11111222 
WAVCIS,ioos:station:WAVCIS:CSI03:1,2009-07-11T14:00:00Z,29.4412,-92.0613,30.2,11111222 
WAVCIS,ioos:station:WAVCIS:CSI03:1,2009-07-11T15:00:00Z,29.4412,-92.0613,29.98,11111222 
WAVCIS,ioos:station:WAVCIS:CSI03:1,2009-07-11T16:00:00Z,29.4412,-92.0613,29.81,11111222 
WAVCIS,ioos:station:WAVCIS:CSI03:1,2009-07-11T17:00:00Z,29.4412,-92.0613,29.98,11111222 
WAVCIS,ioos:station:WAVCIS:CSI03:1,2009-07-11T18:00:00Z,29.4412,-92.0613,29.6,11111222 
WAVCIS,ioos:station:WAVCIS:CSI03:1,2009-07-11T19:00:00Z,29.4412,-92.0613,30.58,11111222 
WAVCIS,ioos:station:WAVCIS:CSI03:1,2009-07-11T20:00:00Z,29.4412,-92.0613,30.59,11111222 
WAVCIS,ioos:station:WAVCIS:CSI03:1,2009-07-11T21:00:00Z,29.4412,-92.0613,30.65,11111222 
WAVCIS,ioos:station:WAVCIS:CSI03:1,2009-07-11T22:00:00Z,29.4412,-92.0613,31.09,11111222 
WAVCIS,ioos:station:WAVCIS:CSI03:1,2009-07-11T23:00:00Z,29.4412,-92.0613,31.1,11111222 
WAVCIS,ioos:station:WAVCIS:CSI03:1,2009-07-12T00:00:00Z,29.4412,-92.0613,31.49,11111222 
WAVCIS,ioos:station:WAVCIS:CSI03:1,2009-07-12T01:00:00Z,29.4412,-92.0613,30.06,11111222 
WAVCIS,ioos:station:WAVCIS:CSI03:1,2009-07-12T02:00:00Z,29.4412,-92.0613,29.02,11111222 
WAVCIS,ioos:station:WAVCIS:CSI03:1,2009-07-12T03:00:00Z,29.4412,-92.0613,29.84,11111222 
WAVCIS,ioos:station:WAVCIS:CSI03:1,2009-07-12T04:00:00Z,29.4412,-92.0613,30.2,11111222 